Flag for Canada Weather past 2 weeks in Drummondville, Quebec, Canada

Now
21 °F

Cold.


Feels Like: 14 °F
Forecast: 15 / 29 °F
Wind: 5 mph from East

Location: Nicolet

Current Time: Mar 4, 2015 at 12:32:24 AM

Latest Report: Mar 3, 2015 at 11:00 PM


Visibility: N/A

Pressure: 29.57 "Hg

Humidity: 94%

Dew point: 19 °F

Location of DrummondvilleLocation

Historic Weather in Drummondville — Graph

°F

Drummondville temperature yesterday

Maximum temperature yesterday: 22 °F (at 4:00 PM)
Minimum temperature yesterday: -4 °F (at 7:00 AM)
Average temperature yesterday: 12 °F

Past Weeks' High & Low Weather Summary

 TemperatureHumidityPressure
High26 °F (Mar 2, 2:00 PM)99% (Feb 21, 11:00 PM)30.67 "Hg (Feb 21, 11:00 PM)
Low-22 °F (Feb 24, 3:00 AM)38% (Mar 3, 4:00 PM)29.56 "Hg (Feb 19, 2:00 PM)
Average7 °F68%30.09 "Hg
* Reported Feb 16 11:00 PM — Mar 3 11:00 PM, Drummondville, Weather by CustomWeather, © 2015

Note: Actual official high and low records may vary slightly from our data, if they occured in-between our weather recording intervals... More about our weather records

Advertising

Drummondville weather history for previous 24 hours

 ConditionsComfort  
Time TempWeatherWind HumidityBarometerVisibility
11:00 PM
Tue, Mar 3
21 °FCold.5 mph94%29.57 "HgN/A
10:00 PM20 °FCold.3 mph93%29.64 "HgN/A
9:00 PM20 °FCold.3 mph91%29.72 "HgN/A
8:00 PM22 °FCold.8 mph59%29.77 "HgN/A
7:00 PM20 °FCold.6 mph48%29.84 "HgN/A
6:00 PM20 °FCold.6 mph43%29.90 "HgN/A
5:00 PM21 °FCold.2 mph41%29.99 "HgN/A
4:00 PM22 °FCold.5 mph38%30.04 "HgN/A
3:00 PM20 °FCold.7 mph43%30.11 "HgN/A
1:00 PM18 °FCold.10 mph43%30.22 "HgN/A
12:00 PM16 °FCold.9 mph45%30.28 "HgN/A
11:00 AM13 °FCold.6 mph49%30.31 "HgN/A
10:00 AM10 °FFrigid.2 mph50%30.33 "HgN/A
9:00 AM6 °FFrigid.3 mph58%30.35 "HgN/A
8:00 AM0 °FFrigid.2 mph72%30.34 "HgN/A
7:00 AM-4 °FFrigid.1 mph84%30.36 "HgN/A
6:00 AM-3 °FFrigid.1 mph79%30.36 "HgN/A
5:00 AM-2 °FFrigid.No wind79%30.35 "HgN/A
4:00 AM4 °FFrigid.3 mph65%30.34 "HgN/A
3:00 AM5 °FFrigid.3 mph65%30.33 "HgN/A
2:00 AM10 °FFrigid.5 mph52%30.33 "HgN/A
1:00 AM11 °FCold.3 mph48%30.31 "HgN/A
12:00 AM10 °FFrigid.5 mph54%30.29 "HgN/A
Weather by CustomWeather, © 2015

See weather overviewHow to use our weather pages